Probability
0 0 0 0 0 0 0 0 0 0 0 0 0 0 0 1 4 15 42 77 94 91 84 75 69 71 79 88 93 95 96 94 92 91 94 96 98 99 99 99 99 100 100 99
0 0 0 0 0 0 0 0 0 0 0 0 0 0 0 3 14 31 55 81 94 93 79 56 42 43 53 69 79 83 88 93 93 92 91 92 94 97 97 97 98 99 99 98
0 0 0 0 0 0 0 0 0 0 0 0 0 0 1 12 37 59 66 69 75 73 58 31 14 13 21 36 50 61 79 92 94 89 81 77 80 84 89 94 97 98 97 97
0 0 0 0 0 0 0 0 0 0 0 0 0 0 4 24 56 64 47 35 34 32 24 11 4 3 5 11 21 37 63 85 91 87 76 67 64 65 71 82 91 95 96 94
0 0 0 0 0 0 0 0 0 0 0 0 0 0 5 26 48 40 18 7 6 4 2 1 1 1 1 2 5 15 37 66 84 88 84 76 69 62 60 67 77 88 92 88
0 0 0 0 0 0 0 0 0 0 0 0 0 0 4 16 24 18 6 1 0 0 0 0 0 0 0 0 1 5 22 52 79 89 88 84 79 72 67 66 72 82 85 81
0 0 0 0 0 0 0 0 0 0 0 0 0 0 2 6 10 8 3 1 0 0 0 0 1 1 0 1 3 12 33 58 73 75 72 69 67 65 66 71 78 83 79 74
0 0 0 0 0 0 0 0 0 0 0 0 0 0 1 3 4 3 1 0 0 0 0 1 2 2 1 4 12 29 50 59 53 45 43 42 41 40 46 62 77 80 69 58
0 0 0 0 0 0 0 0 0 0 0 0 0 0 1 2 1 0 0 0 0 0 0 0 1 1 2 9 25 40 47 42 28 18 16 18 18 18 24 41 58 60 46 33
0 0 0 0 0 0 0 0 0 0 0 0 0 0 0 1 0 0 0 0 0 0 0 0 0 0 2 13 29 35 31 25 16 6 3 4 5 7 11 20 28 28 20 13
0 0 0 0 0 0 0 0 0 0 0 0 0 0 0 0 0 0 0 0 0 0 0 0 0 0 2 11 22 24 20 18 13 6 2 1 1 1 2 5 7 6 4 3
0 0 0 0 0 0 0 0 0 0 0 0 0 0 0 0 0 0 0 0 0 0 0 0 0 0 2 8 15 15 12 12 10 6 4 1 0 0 0 0 0 0 0 0
0 0 0 0 0 0 0 0 0 0 0 0 0 0 0 0 0 0 0 0 0 0 0 0 1 2 4 9 15 12 6 5 5 4 2 1 0 0 0 0 0 0 0 0
0 0 0 0 0 0 0 0 0 0 0 0 0 0 0 0 0 0 0 0 0 0 0 0 3 4 6 15 25 20 8 2 1 1 1 0 0 0 0 0 0 0 0 0
0 0 0 0 0 0 0 0 0 0 0 0 0 0 0 0 0 0 0 0 0 0 0 0 2 3 6 19 34 29 14 5 2 0 0 0 0 0 0 0 0 0 0 0
0 0 0 0 0 0 0 0 0 0 0 0 0 0 1 1 1 1 1 0 0 0 0 0 0 3 10 22 35 38 26 13 5 1 0 1 0 0 0 0 0 0 0 0
0 0 0 0 0 0 0 0 0 0 0 0 1 2 3 4 5 5 4 2 0 0 0 0 0 5 14 21 36 47 39 21 7 1 0 0 0 0 0 0 0 0 0 0
0 0 0 0 0 0 0 0 0 0 0 1 4 5 6 6 7 8 6 3 0 0 0 0 0 6 14 19 30 45 42 25 9 1 0 0 0 0 0 0 0 0 0 0
0 0 0 0 0 0 0 0 0 0 1 3 5 6 5 3 3 4 3 1 0 0 2 3 3 11 25 27 26 31 35 25 11 1 0 0 0 0 0 0 0 0 0 0
0 0 0 0 0 0 0 0 0 1 3 5 5 4 2 0 0 0 0 0 0 0 2 5 6 23 49 56 44 34 29 24 12 1 0 0 0 0 0 0 0 0 0 0
0 2 5 6 4 2 1 0 0 2 5 5 2 1 0 0 0 0 0 0 0 0 1 3 6 25 59 79 76 57 36 25 14 4 1 1 0 0 0 0 0 0 0 0
1 5 13 16 10 5 1 0 0 1 2 2 0 0 0 0 0 0 0 0 0 0 0 0 3 16 42 71 85 76 56 36 21 8 3 1 1 0 0 0 0 0 0 0
1 5 13 18 13 4 1 0 0 0 0 0 0 0 0 0 0 0 0 0 0 0 0 0 1 5 16 38 62 72 66 49 28 12 8 6 3 0 0 0 0 0 0 0
1 1 6 10 7 2 0 0 0 0 0 0 0 0 0 0 0 0 0 0 0 0 0 0 0 0 2 10 26 45 57 54 32 14 11 10 4 0 0 0 0 0 0 0
0 0 1 2 1 0 0 0 0 0 0 0 0 0 0 0 0 0 0 0 0 0 0 0 0 0 0 1 5 17 38 49 36 17 8 6 2 0 0 0 0 0 0 0
0 0 0 0 0 0 0 0 0 0 0 0 0 0 0 0 0 0 0 0 0 0 0 0 0 0 0 0 0 6 24 44 40 18 5 2 0 0 0 0 0 0 0 0
Wind_Speed
10 10 9 4 6 11 13 14 13 10 3 2 5 12 15 10 8 6 5 5 5 3 4 2 3 4 5 4 3 4 4 3 2 4 6 6 6 5 6 7 8 8 7 6
7 9 3 6 6 9 11 10 11 12 7 5 9 12 15 18 11 7 6 5 4 6 6 6 6 5 4 5 6 6 6 4 3 3 3 5 7 6 4 4 5 6 7 6
10 4 3 6 9 8 10 10 11 13 14 14 17 19 20 20 8 9 6 5 5 6 8 9 9 8 7 5 5 5 4 3 4 5 5 6 6 6 7 8 7 8 9 9
9 3 1 8 11 8 8 10 13 12 14 15 18 17 17 6 12 11 9 7 6 4 3 2 1 2 4 4 5 4 3 4 5 6 8 10 9 9 9 7 7 7 8 8
6 4 5 10 10 10 9 12 13 16 16 18 18 17 14 4 12 10 7 7 6 5 3 3 3 3 4 4 4 4 5 4 5 6 7 8 10 10 9 9 9 8 7 6
7 5 6 7 9 6 7 10 15 17 15 17 11 12 6 8 9 11 9 9 9 7 6 5 5 4 3 3 3 4 5 6 6 5 6 7 10 11 12 12 10 7 4 5
7 7 5 4 7 5 6 8 9 10 6 3 2 8 5 11 10 11 10 8 5 5 5 4 4 3 3 4 4 3 4 5 6 6 6 6 8 11 12 12 10 7 5 5
6 5 3 2 5 6 6 8 8 9 11 12 11 10 0 11 8 5 2 2 4 6 6 4 3 3 3 4 3 2 3 5 6 7 7 7 8 8 9 9 8 6 3 3
8 6 6 4 2 5 7 7 9 9 13 15 10 8 7 9 5 1 3 6 7 6 7 8 5 3 4 4 3 3 3 4 5 6 7 7 8 9 9 8 5 3 2 3
8 12 13 5 6 8 8 9 7 7 9 11 12 11 6 3 2 3 6 8 9 9 10 8 5 6 5 4 2 3 1 0 2 4 6 6 7 8 7 4 1 1 2 2
12 12 14 13 12 11 8 9 9 8 9 11 14 11 9 10 8 8 9 9 10 12 12 9 6 5 4 2 1 2 3 4 3 4 5 5 5 5 5 5 5 5 4 3
11 10 11 14 15 14 10 9 10 10 11 12 14 13 11 6 8 9 10 8 8 8 9 7 6 4 4 3 2 4 5 5 5 3 3 3 3 4 5 6 6 6 5 4
8 8 11 11 8 6 7 9 12 12 12 12 15 12 8 9 13 11 10 9 9 9 9 7 5 4 4 3 3 5 5 5 4 3 2 2 1 1 2 3 3 1 2 3
3 7 11 13 15 16 15 16 16 15 13 15 17 18 15 15 14 12 9 9 11 10 8 6 4 3 2 3 3 4 5 5 5 4 3 2 2 1 2 4 4 2 2 3
4 9 12 14 18 20 20 19 17 17 17 18 18 18 15 12 12 11 11 13 14 13 10 7 4 3 2 4 4 5 5 5 4 5 4 4 4 3 2 4 4 3 2 1
5 9 14 18 19 20 20 18 16 15 14 14 13 12 13 13 12 12 13 14 16 15 12 8 5 4 3 4 5 5 5 5 5 5 5 5 5 4 4 5 5 4 3 2
10 12 14 15 18 18 15 11 7 7 10 11 12 12 14 13 14 14 14 15 18 15 10 7 5 4 3 4 5 5 5 5 4 4 5 6 6 5 5 6 6 5 4 3
8 8 8 13 16 15 9 9 9 7 6 12 12 14 15 15 16 13 12 13 14 14 11 8 5 5 5 6 6 6 6 6 5 5 5 7 7 6 5 5 6 5 4 4
5 5 8 10 14 14 11 11 10 8 6 14 13 15 17 19 18 14 16 20 19 16 12 9 6 7 5 6 6 6 6 6 6 7 6 9 10 9 7 6 6 4 4 4
8 7 8 11 14 15 9 10 11 9 7 14 16 17 18 20 16 15 19 21 22 21 15 11 8 7 6 6 6 6 7 8 8 8 7 9 11 11 10 8 6 4 4 5
6 9 12 13 13 9 12 13 12 7 10 18 19 20 20 18 16 20 22 21 21 20 19 17 12 7 6 7 7 8 8 8 9 9 8 8 12 12 11 9 6 5 5 5
13 13 10 8 10 5 19 13 10 10 14 18 20 20 19 19 21 23 23 22 22 21 20 19 16 12 8 8 9 10 10 8 8 9 9 8 9 12 12 11 9 7 6 6
7 6 5 4 5 9 14 13 11 13 14 16 17 19 19 20 21 24 23 22 21 21 19 16 16 15 13 11 10 12 10 8 7 8 9 8 9 9 9 12 12 9 7 7
7 9 8 4 9 9 13 13 13 14 14 14 14 17 17 16 18 21 21 20 19 18 18 16 16 16 14 14 14 13 10 9 9 9 8 8 8 8 9 9 9 9 9 8
7 9 8 7 10 9 13 16 17 17 18 19 19 19 18 16 17 18 17 17 16 16 17 17 15 14 15 12 16 15 13 11 11 9 8 9 9 9 9 9 8 9 8 8
8 8 7 6 8 9 12 13 14 15 17 19 21 22 21 21 22 21 18 16 15 16 16 17 18 18 17 13 12 15 12 13 12 10 9 9 9 8 8 8 6 3 3 8
Wind_Direction
227 238 258 336 343 328 313 311 321 320 87 119 281 285 286 261 206 210 188 168 173 162 125 177 249 249 231 225 231 248 266 289 313 310 307 299 289 279 271 268 270 275 275 266
255 255 334 10 321 293 287 289 286 277 286 294 279 274 278 277 239 185 172 166 173 164 165 186 206 225 230 215 214 221 235 258 273 278 287 283 283 282 283 277 269 261 259 258
287 58 24 277 256 260 285 301 307 318 329 317 300 282 271 262 186 141 158 170 174 180 185 193 203 213 227 237 240 254 251 261 274 273 275 274 270 264 260 255 250 245 240 235
274 246 258 286 288 289 284 315 333 317 299 288 287 289 285 246 148 156 163 162 151 151 162 173 196 341 328 332 333 329 296 247 241 247 255 262 268 271 270 266 258 246 236 233
294 344 293 276 284 302 310 320 308 288 277 274 271 271 278 193 154 157 157 158 169 178 210 231 254 277 288 298 306 312 299 278 256 247 250 258 264 267 272 272 265 257 245 224
303 293 278 290 301 317 314 299 283 266 255 260 291 310 311 105 142 153 162 189 202 217 229 226 234 243 252 284 295 305 313 303 288 269 264 266 271 274 275 275 275 270 243 213
276 264 255 273 288 292 283 297 301 307 284 254 229 274 291 130 138 154 174 191 209 256 270 265 271 280 278 278 278 290 308 331 340 332 316 296 283 279 272 269 266 257 235 215
313 322 275 282 309 307 284 280 292 320 321 322 298 284 21 122 113 115 149 237 273 287 288 282 279 275 275 281 282 317 3 353 344 334 325 316 306 292 282 273 261 247 230 207
320 319 311 254 271 296 284 282 320 317 293 287 294 324 96 110 100 169 245 253 257 273 295 290 288 323 344 349 9 46 29 3 347 337 333 327 325 315 299 286 260 216 179 150
300 304 303 291 199 233 247 293 306 292 296 304 307 314 22 80 275 285 308 313 305 309 312 315 351 354 356 3 42 91 81 131 316 329 333 333 337 337 328 319 310 107 107 114
318 302 293 287 268 269 248 241 265 285 294 299 298 302 322 322 325 331 320 325 339 338 337 343 346 344 344 341 136 185 218 208 239 290 322 334 347 355 14 33 50 51 46 34
316 312 307 298 290 284 270 278 291 287 284 283 285 290 304 344 339 330 327 333 343 336 324 317 323 338 336 315 249 237 238 227 236 267 310 329 351 14 38 51 47 38 27 6
351 328 306 296 297 273 280 282 277 274 273 271 275 282 300 320 321 327 327 337 344 334 326 317 313 310 312 294 254 261 269 256 248 261 269 290 304 57 86 103 93 29 310 298
273 277 278 289 302 309 297 287 285 284 280 280 282 293 306 317 321 327 339 345 331 319 311 300 287 283 286 267 249 259 274 264 248 248 231 217 198 177 155 158 163 193 258 279
254 274 284 293 299 295 290 288 289 287 284 284 290 297 316 338 347 357 356 344 330 320 308 295 290 282 258 245 233 241 249 247 250 254 236 203 188 180 155 140 153 166 203 235
303 292 296 292 290 289 284 279 281 282 284 290 304 320 351 356 359 359 354 340 325 312 302 296 310 305 265 244 241 236 229 233 239 247 239 194 188 176 147 147 152 147 142 122
282 290 291 289 296 300 293 301 300 309 324 332 331 346 0 0 357 349 338 322 313 307 301 301 304 297 256 245 241 234 223 225 237 241 231 185 182 173 163 162 155 152 152 153
259 282 285 284 290 285 294 353 331 315 2 9 2 5 360 351 342 332 326 335 343 337 323 306 298 288 253 235 230 218 216 211 216 226 208 173 172 166 163 157 152 164 169 151
193 245 279 285 289 295 319 24 12 347 352 36 6 354 347 339 327 326 351 344 331 321 308 288 264 266 260 239 235 220 205 204 211 216 196 173 169 166 166 160 160 172 162 146
189 208 249 274 289 293 331 7 355 315 277 25 2 351 345 340 330 331 337 330 330 332 324 315 277 244 239 231 228 225 213 203 208 210 203 176 170 173 179 176 172 177 168 162
258 242 244 259 268 272 24 3 351 325 353 360 356 353 350 343 330 326 330 333 332 332 336 337 321 269 237 220 211 219 223 213 203 203 206 186 175 179 185 183 181 180 181 177
296 290 291 298 296 331 21 34 34 3 359 5 1 356 350 342 335 332 332 331 331 332 336 340 338 326 287 241 215 215 218 215 202 200 204 200 181 185 188 187 189 189 187 177
326 358 338 356 51 74 52 52 33 18 10 5 356 345 343 341 337 331 327 326 325 328 330 333 331 330 319 286 243 222 213 207 208 204 200 198 188 193 183 183 187 186 187 188
352 2 326 340 76 69 56 33 18 10 356 345 336 327 327 327 322 316 313 315 317 320 320 321 324 324 327 324 285 244 220 202 206 209 197 187 184 183 178 180 182 184 187 192
7 358 341 356 19 358 15 5 353 343 334 326 320 312 305 298 292 292 294 300 306 310 311 313 311 311 311 327 319 272 228 207 205 204 195 184 185 180 178 182 184 193 191 191
35 25 10 9 5 336 330 329 319 310 304 300 299 301 302 306 304 300 296 295 297 302 307 308 309 310 311 312 327 308 257 214 201 200 195 188 184 177 177 173 154 67 172 190